,,PA_Meas_PMT16A,,PR_Meas_QMR101_102,,RH_Meas_QMH101,,SR_Meas_QMS101,,TA_Meas_QMH101,,GenWind,,GenWind,
time,status,PA,status,PR,status,RH,status,SR,status,TA,status,DirAvg,status,SpdAvg,
2015-04-13, 07:36:04,VALID,919.627,VALID,0,VALID,93.9662,VALID,70.9112,VALID,20.873,VALID,143,VALID,1.47148,
2015-04-13, 07:37:04,VALID,919.663,VALID,0,VALID,93.6003,VALID,73.8121,VALID,20.9105,VALID,159,VALID,1.80469,
2015-04-13, 07:38:04,VALID,919.67,VALID,0,VALID,93.2649,VALID,72.093,VALID,20.93,VALID,123,VALID,1.90117,
2015-04-13, 07:39:04,VALID,919.71,VALID,0,VALID,93.3335,VALID,70.8037,VALID,20.9495,VALID,149,VALID,1.34492,
2015-04-13, 07:40:04,VALID,919.754,VALID,0,VALID,93.1124,VALID,73.06,VALID,20.9706,VALID,144,VALID,1.78516,
2015-04-13, 07:41:04,VALID,919.823,VALID,0,VALID,92.2814,VALID,77.5725,VALID,20.9885,VALID,146,VALID,1.7918,
2015-04-13, 07:42:04,VALID,919.84,VALID,0,VALID,91.8545,VALID,76.713,VALID,21.0096,VALID,149,VALID,1.90703,
2015-04-13, 07:43:04,VALID,919.848,VALID,0,VALID,92.1595,VALID,69.407,VALID,21.008,VALID,160,VALID,1.9293,
2015-04-13, 07:44:04,VALID,919.844,VALID,0,VALID,92.1976,VALID,65.8614,VALID,21.0275,VALID,160,VALID,1.90781,
2015-04-13, 07:45:04,VALID,919.824,VALID,0,VALID,91.9003,VALID,65.4317,VALID,21.0486,VALID,154,VALID,1.91875,
2015-04-13, 07:46:04,VALID,919.831,VALID,0,VALID,92.0756,VALID,68.9772,VALID,21.0486,VALID,157,VALID,2.125,
2015-04-13, 07:47:04,VALID,919.859,VALID,0,VALID,91.5115,VALID,75.9609,VALID,21.0681,VALID,149,VALID,2.19102,
2015-04-13, 07:48:04,VALID,919.875,VALID,0,VALID,91.6335,VALID,85.738,VALID,21.0665,VALID,148,VALID,2.40313,
2015-04-13, 07:49:04,VALID,919.871,VALID,0,VALID,90.9473,VALID,95.0854,VALID,21.1055,VALID,138,VALID,1.87344,
2015-04-13, 07:50:04,VALID,919.88,VALID,0,VALID,90.5967,VALID,91.4324,VALID,21.1657,VALID,142,VALID,1.55938,
2015-04-13, 07:51:04,VALID,919.906,VALID,0,VALID,90.4671,VALID,84.5562,VALID,21.164,VALID,145,VALID,0.803125,
2015-04-13, 07:52:04,VALID,919.956,VALID,0,VALID,90.7415,VALID,83.2669,VALID,21.2031,VALID,128,VALID,1.62227,
2015-04-13, 07:53:04,VALID,919.922,VALID,0,VALID,90.3756,VALID,91.1101,VALID,21.2031,VALID,128,VALID,1.88008,
2015-04-13, 07:54:04,VALID,919.937,VALID,0,VALID,90.0554,VALID,104.433,VALID,21.2031,VALID,132,VALID,1.94648,
2015-04-13, 07:55:04,VALID,919.955,VALID,0,VALID,90.2765,VALID,102.177,VALID,21.2047,VALID,124,VALID,1.92109,
2015-04-13, 07:56:04,VALID,919.955,VALID,0,VALID,91.3057,VALID,95.8375,VALID,21.2031,VALID,160,VALID,1.30703,
2015-04-13, 07:57:04,VALID,919.965,VALID,0,VALID,91.8469,VALID,95.3003,VALID,21.1836,VALID,145,VALID,1.46016,
2015-04-13, 07:58:04,VALID,919.958,VALID,0,VALID,92.2586,VALID,90.0357,VALID,21.1836,VALID,137,VALID,1.72344,
2015-04-13, 07:59:04,VALID,919.959,VALID,0,VALID,91.3361,VALID,83.9115,VALID,21.1445,VALID,129,VALID,2.19805,
2015-04-13, 08:00:04,VALID,919.962,VALID,0,VALID,91.8393,VALID,87.9943,VALID,21.1836,VALID,135,VALID,1.17422,
2015-04-13, 08:01:04,VALID,919.971,VALID,0,VALID,91.885,VALID,97.2342,VALID,21.2047,VALID,134,VALID,2.0875,
2015-04-13, 08:02:04,VALID,919.983,VALID,0,VALID,92.5711,VALID,95.7301,VALID,21.2242,VALID,110,VALID,1.69414,
2015-04-13, 08:03:04,VALID,919.978,VALID,0,VALID,93.1886,VALID,89.2836,VALID,21.1836,VALID,98,VALID,1.05977,
2015-04-13, 08:04:04,VALID,919.987,VALID,0,VALID,93.7147,VALID,84.3413,VALID,21.1836,VALID,122,VALID,1.11641,
2015-04-13, 08:05:04,VALID,920.029,VALID,0,VALID,94.012,VALID,78.5395,VALID,21.2031,VALID,127,VALID,0.758594,
2015-04-13, 08:06:04,VALID,920.01,VALID,0,VALID,93.9967,VALID,74.027,VALID,21.1836,VALID,139,VALID,1.38125,
2015-04-13, 08:07:04,VALID,920.045,VALID,0,VALID,93.5546,VALID,72.5228,VALID,21.164,VALID,127,VALID,2.01719,
2015-04-13, 08:08:04,VALID,920.04,VALID,0,VALID,93.7756,VALID,69.7293,VALID,21.1657,VALID,124,VALID,2.07227,
2015-04-13, 08:09:04,VALID,920.059,VALID,0,VALID,93.6537,VALID,67.1507,VALID,21.086,VALID,130,VALID,2.38477,
2015-04-13, 08:10:04,VALID,920.058,VALID,0,VALID,93.7756,VALID,67.5805,VALID,21.086,VALID,140,VALID,1.43867,
2015-04-13, 08:11:04,VALID,920.059,VALID,0,VALID,93.8595,VALID,69.9442,VALID,21.086,VALID,135,VALID,1.3875,
2015-04-13, 08:12:04,VALID,920.087,VALID,0,VALID,94.0577,VALID,70.6963,VALID,21.0844,VALID,134,VALID,1.44492,
2015-04-13, 08:13:04,VALID,920.105,VALID,0,VALID,93.9891,VALID,70.0516,VALID,21.1055,VALID,132,VALID,1.2957,
2015-04-13, 08:14:04,VALID,920.092,VALID,0,VALID,93.7299,VALID,70.5888,VALID,21.0649,VALID,115,VALID,2.0418,
2015-04-13, 08:15:04,VALID,920.091,VALID,0,VALID,93.9434,VALID,70.6963,VALID,21.125,VALID,138,VALID,1.23789,
2015-04-13, 08:16:04,VALID,920.078,VALID,0,VALID,93.6918,VALID,70.0516,VALID,21.1055,VALID,154,VALID,1.56406,
2015-04-13, 08:17:04,VALID,920.136,VALID,0,VALID,93.8214,VALID,70.2665,VALID,21.164,VALID,149,VALID,1.43867,
2015-04-13, 08:18:04,VALID,920.133,VALID,0,VALID,93.1734,VALID,72.6302,VALID,21.1836,VALID,147,VALID,1.4582,
2015-04-13, 08:19:04,VALID,920.147,VALID,0,VALID,92.8151,VALID,75.9609,VALID,21.2031,VALID,139,VALID,1.3207,
2015-04-13, 08:20:04,VALID,920.155,VALID,0,VALID,91.824,VALID,76.8204,VALID,21.2226,VALID,144,VALID,1.83828,
2015-04-13, 08:21:04,VALID,920.19,VALID,0,VALID,92.1214,VALID,74.5642,VALID,21.2437,VALID,142,VALID,1.08555,
2015-04-13, 08:22:04,VALID,920.165,VALID,0,VALID,92.3348,VALID,72.3079,VALID,21.2827,VALID,161,VALID,1.46172,
2015-04-13, 08:23:04,VALID,920.186,VALID,0,VALID,91.6716,VALID,73.9195,VALID,21.2827,VALID,165,VALID,1.64258,
2015-04-13, 08:24:04,VALID,920.206,VALID,0,VALID,90.5128,VALID,76.4981,VALID,21.2827,VALID,149,VALID,1.57109,
2015-04-13, 08:25:04,VALID,920.201,VALID,0,VALID,90.4899,VALID,76.6055,VALID,21.3022,VALID,145,VALID,1.70234,
2015-04-13, 08:26:04,VALID,920.226,VALID,0,VALID,91.1684,VALID,76.4981,VALID,21.3234,VALID,149,VALID,1.20742,
2015-04-13, 08:27:04,VALID,920.234,VALID,0,VALID,90.5814,VALID,75.8535,VALID,21.3217,VALID,168,VALID,1.04844,
2015-04-13, 08:28:04,VALID,920.281,VALID,0,VALID,90.2765,VALID,75.3162,VALID,21.3608,VALID,138,VALID,1.36211,
2015-04-13, 08:29:04,VALID,920.275,VALID,0,VALID,90.4366,VALID,77.1427,VALID,21.3591,VALID,144,VALID,1.14453,
2015-04-13, 08:30:04,VALID,920.283,VALID,0,VALID,90.8025,VALID,78.3246,VALID,21.3998,VALID,168,VALID,1.1293,
2015-04-13, 08:31:04,VALID,920.318,VALID,0,VALID,90.0402,VALID,79.0767,VALID,21.4388,VALID,170,VALID,0.237109,
2015-04-13, 08:32:04,VALID,920.342,VALID,0,VALID,89.072,VALID,80.4734,VALID,21.4583,VALID,144,VALID,2.17266,
2015-04-13, 08:33:04,VALID,920.357,VALID,0,VALID,88.828,VALID,81.2255,VALID,21.4778,VALID,138,VALID,1.20469,
2015-04-13, 08:34:04,VALID,920.349,VALID,0,VALID,89.4303,VALID,82.085,VALID,21.5168,VALID,158,VALID,0.633203,
2015-04-13, 08:35:04,VALID,920.365,VALID,0,VALID,88.2258,VALID,85.6306,VALID,21.5168,VALID,145,VALID,2.18555,
2015-04-13, 08:36:04,VALID,920.349,VALID,0,VALID,88.8509,VALID,92.8292,VALID,21.5737,VALID,131,VALID,1.38164,
2015-04-13, 08:37:04,VALID,920.354,VALID,0,VALID,88.9424,VALID,99.4905,VALID,21.5542,VALID,131,VALID,1.58516,
2015-04-13, 08:38:04,VALID,920.344,VALID,0,VALID,88.5002,VALID,102.714,VALID,21.5737,VALID,113,VALID,1.33828,
2015-04-13, 08:39:04,VALID,920.36,VALID,0,VALID,88.95,VALID,105.722,VALID,21.6128,VALID,130,VALID,0,
2015-04-13, 08:40:04,VALID,920.344,VALID,0,VALID,88.6146,VALID,111.202,VALID,21.6111,VALID,126,VALID,1.09727,
2015-04-13, 08:41:04,VALID,920.338,VALID,0,VALID,89.0034,VALID,119.475,VALID,21.6924,VALID,156,VALID,0,
2015-04-13, 08:42:04,VALID,920.338,VALID,0,VALID,88.9805,VALID,127.855,VALID,21.7103,VALID,131,VALID,0,
2015-04-13, 08:43:04,VALID,920.307,VALID,0,VALID,88.6146,VALID,185.336,VALID,21.7282,VALID,139,VALID,0,
2015-04-13, 08:44:04,VALID,920.339,VALID,0,VALID,88.3401,VALID,237.445,VALID,21.8079,VALID,141,VALID,0,
2015-04-13, 08:45:04,VALID,920.313,VALID,0,VALID,87.9361,VALID,171.584,VALID,21.9054,VALID,155,VALID,0,
2015-04-13, 08:46:04,VALID,920.328,VALID,0,VALID,87.6998,VALID,159.335,VALID,21.9835,VALID,152,VALID,0,
2015-04-13, 08:47:04,VALID,920.347,VALID,0,VALID,87.433,VALID,146.335,VALID,22.0615,VALID,151,VALID,0,
2015-04-13, 08:48:04,VALID,920.318,VALID,0,VALID,86.6096,VALID,142.145,VALID,22.0208,VALID,129,VALID,0,
2015-04-13, 08:49:04,VALID,920.323,VALID,0,VALID,87.4558,VALID,145.905,VALID,22.0794,VALID,176,VALID,0,
2015-04-13, 08:50:04,VALID,920.318,VALID,0,VALID,87.0518,VALID,152.996,VALID,22.1201,VALID,154,VALID,0,
2015-04-13, 08:51:04,VALID,920.301,VALID,0,VALID,87.3491,VALID,157.724,VALID,22.0989,VALID,143,VALID,0,
2015-04-13, 08:52:04,VALID,920.309,VALID,0,VALID,86.9908,VALID,157.401,VALID,22.1201,VALID,140,VALID,0,
2015-04-13, 08:53:04,VALID,920.327,VALID,0,VALID,87.1585,VALID,156.219,VALID,22.0989,VALID,139,VALID,0,
2015-04-13, 08:54:04,VALID,920.284,VALID,0,VALID,87.2881,VALID,155.897,VALID,22.1184,VALID,136,VALID,0,
2015-04-13, 08:55:04,VALID,920.299,VALID,0,VALID,86.9146,VALID,157.186,VALID,22.1201,VALID,142,VALID,0,
2015-04-13, 08:56:04,VALID,920.311,VALID,0,VALID,86.2894,VALID,159.443,VALID,22.1803,VALID,151,VALID,0,
2015-04-13, 08:57:04,VALID,920.299,VALID,0,VALID,85.8854,VALID,162.773,VALID,22.1786,VALID,154,VALID,0,
2015-04-13, 08:58:04,VALID,920.299,VALID,0,VALID,86.7164,VALID,167.716,VALID,22.2583,VALID,166,VALID,0,
2015-04-13, 08:59:04,VALID,920.306,VALID,0,VALID,86.0531,VALID,168.79,VALID,22.2779,VALID,158,VALID,0,
2015-04-13, 09:00:04,VALID,920.305,VALID,0,VALID,85.5957,VALID,167.716,VALID,22.3169,VALID,151,VALID,0,
2015-04-13, 09:01:04,VALID,920.338,VALID,0,VALID,86.1446,VALID,169.22,VALID,22.2957,VALID,141,VALID,0,
2015-04-13, 09:02:04,VALID,920.311,VALID,0,VALID,85.9921,VALID,173.732,VALID,22.3542,VALID,169,VALID,0,
2015-04-13, 09:03:04,VALID,920.302,VALID,0,VALID,84.719,VALID,180.823,VALID,22.3737,VALID,147,VALID,0.30625,
2015-04-13, 09:04:04,VALID,920.298,VALID,0,VALID,85.2603,VALID,190.063,VALID,22.3542,VALID,121,VALID,0.375391,
2015-04-13, 09:05:04,VALID,920.288,VALID,0,VALID,86.2285,VALID,202.849,VALID,22.3347,VALID,118,VALID,1.55664,
2015-04-13, 09:06:04,VALID,920.256,VALID,0,VALID,86.1903,VALID,225.197,VALID,22.3152,VALID,130,VALID,2.09023,
2015-04-13, 09:07:04,VALID,920.211,VALID,0,VALID,86.4648,VALID,231.858,VALID,22.3737,VALID,117,VALID,1.08672,
2015-04-13, 09:08:04,VALID,920.214,VALID,0,VALID,86.5791,VALID,241.205,VALID,22.4518,VALID,128,VALID,1.22891,
2015-04-13, 09:09:04,VALID,920.16,VALID,0,VALID,86.3581,VALID,260.008,VALID,22.5103,VALID,114,VALID,1.775,
2015-04-13, 09:10:04,VALID,920.151,VALID,0,VALID,87.1509,VALID,250.23,VALID,22.5689,VALID,104,VALID,1.28711,
2015-04-13, 09:11:04,VALID,920.161,VALID,0,VALID,86.076,VALID,249.908,VALID,22.5884,VALID,129,VALID,1.45391,
2015-04-13, 09:12:04,VALID,920.176,VALID,0,VALID,87.0442,VALID,245.933,VALID,22.6665,VALID,101,VALID,1.48867,
2015-04-13, 09:13:04,VALID,920.142,VALID,0,VALID,85.489,VALID,262.586,VALID,22.725,VALID,127,VALID,0,
2015-04-13, 09:14:04,VALID,920.136,VALID,0,VALID,85.0087,VALID,373.465,VALID,22.8209,VALID,94,VALID,0,
2015-04-13, 09:15:04,VALID,920.11,VALID,0,VALID,84.9782,VALID,422.673,VALID,22.9787,VALID,129,VALID,1.1375,
2015-04-13, 09:16:04,VALID,920.042,VALID,0,VALID,82.897,VALID,410.962,VALID,22.9787,VALID,105,VALID,3.26719,
2015-04-13, 09:17:04,VALID,920.073,VALID,0,VALID,85.3899,VALID,529.04,VALID,23.0763,VALID,167,VALID,1.3043,
2015-04-13, 09:18:04,VALID,920.062,VALID,0,VALID,84.8791,VALID,554.181,VALID,23.2325,VALID,138,VALID,0,
2015-04-13, 09:19:04,VALID,920.077,VALID,0,VALID,83.6899,VALID,550.958,VALID,23.3674,VALID,138,VALID,0.457031,
2015-04-13, 09:20:04,VALID,920.019,VALID,0,VALID,81.0674,VALID,556.33,VALID,23.4454,VALID,145,VALID,0.0289063,
2015-04-13, 09:21:04,VALID,919.999,VALID,0,VALID,81.7535,VALID,543.867,VALID,23.504,VALID,159,VALID,0.409375,
2015-04-13, 09:22:04,VALID,919.958,VALID,0,VALID,83.3011,VALID,539.355,VALID,23.6406,VALID,173,VALID,0.601563,
2015-04-13, 09:23:04,VALID,919.924,VALID,0,VALID,82.9046,VALID,533.445,VALID,23.6797,VALID,149,VALID,0.084375,
2015-04-13, 09:24:04,VALID,919.922,VALID,0,VALID,82.3786,VALID,515.503,VALID,23.8554,VALID,154,VALID,0.00078125,
2015-04-13, 09:25:04,VALID,919.878,VALID,0,VALID,81.5248,VALID,515.503,VALID,23.9335,VALID,146,VALID,0.0117188,
2015-04-13, 09:26:04,VALID,919.901,VALID,0,VALID,80.8844,VALID,526.677,VALID,23.9335,VALID,108,VALID,0.0417969,
2015-04-13, 09:27:04,VALID,919.857,VALID,0,VALID,81.1436,VALID,526.999,VALID,23.9725,VALID,118,VALID,0,
2015-04-13, 09:28:04,VALID,919.873,VALID,0,VALID,81.5477,VALID,533.338,VALID,24.1269,VALID,107,VALID,0,
2015-04-13, 09:29:04,VALID,919.883,VALID,0,VALID,81.1436,VALID,553.322,VALID,24.402,VALID,106,VALID,0,
2015-04-13, 09:30:04,VALID,919.831,VALID,0,VALID,81.6392,VALID,539.999,VALID,24.5173,VALID,60,VALID,0.00585938,
2015-04-13, 09:31:04,VALID,919.883,VALID,0,VALID,78.6737,VALID,564.818,VALID,24.5759,VALID,104,VALID,0,
2015-04-13, 09:32:04,VALID,919.862,VALID,0,VALID,76.3638,VALID,585.554,VALID,24.5173,VALID,102,VALID,0.971875,
2015-04-13, 09:33:04,VALID,919.877,VALID,0,VALID,77.5149,VALID,633.473,VALID,24.5759,VALID,91,VALID,0.474219,
2015-04-13, 09:34:04,VALID,919.896,VALID,0,VALID,76.6992,VALID,644.002,VALID,24.6363,VALID,117,VALID,0.00195313,
2015-04-13, 09:35:04,VALID,919.91,VALID,0,VALID,74.8543,VALID,658.077,VALID,24.7144,VALID,155,VALID,0.245703,
2015-04-13, 09:36:04,VALID,919.917,VALID,0,VALID,76.5315,VALID,580.075,VALID,24.7711,VALID,152,VALID,0.459766,
2015-04-13, 09:37:04,VALID,919.929,VALID,0,VALID,74.3664,VALID,565.57,VALID,24.7126,VALID,134,VALID,0.113672,
2015-04-13, 09:38:04,VALID,919.987,VALID,0,VALID,76.0283,VALID,313.621,VALID,24.6345,VALID,130,VALID,0,
2015-04-13, 09:39:04,VALID,919.96,VALID,0,VALID,75.9978,VALID,309.216,VALID,24.7126,VALID,137,VALID,0,
2015-04-13, 09:40:04,VALID,919.97,VALID,0,VALID,75.8149,VALID,521.09,VALID,24.7126,VALID,169,VALID,0,
2015-04-13, 09:41:04,VALID,919.982,VALID,0,VALID,75.3498,VALID,340.374,VALID,24.7516,VALID,160,VALID,0,
2015-04-13, 09:42:04,VALID,919.969,VALID,0,VALID,75.9673,VALID,328.018,VALID,24.8297,VALID,163,VALID,0,
2015-04-13, 09:43:04,VALID,919.969,VALID,0,VALID,76.0207,VALID,496.7,VALID,24.9274,VALID,166,VALID,0,
2015-04-13, 09:44:04,VALID,919.949,VALID,0,VALID,76.0131,VALID,393.127,VALID,25.064,VALID,150,VALID,0,
2015-04-13, 09:45:04,VALID,919.939,VALID,0,VALID,73.8557,VALID,359.82,VALID,24.9859,VALID,140,VALID,0.935938,
2015-04-13, 09:46:04,VALID,919.931,VALID,0,VALID,74.5875,VALID,331.456,VALID,24.8688,VALID,162,VALID,0.377734,
2015-04-13, 09:47:04,VALID,919.947,VALID,0,VALID,74.5265,VALID,309.001,VALID,24.6521,VALID,152,VALID,0.0101562,
2015-04-13, 09:48:04,VALID,919.947,VALID,0,VALID,75.3575,VALID,307.067,VALID,24.4978,VALID,122,VALID,0.354688,
2015-04-13, 09:49:04,VALID,919.933,VALID,0,VALID,76.7068,VALID,313.191,VALID,24.4002,VALID,129,VALID,0,
2015-04-13, 09:50:04,VALID,919.932,VALID,0,VALID,78.0104,VALID,350.151,VALID,24.4178,VALID,141,VALID,0,
2015-04-13, 09:51:04,VALID,919.941,VALID,0,VALID,75.0678,VALID,387.648,VALID,24.4997,VALID,203,VALID,0,
2015-04-13, 09:52:04,VALID,919.962,VALID,0,VALID,75.3498,VALID,323.613,VALID,24.6149,VALID,203,VALID,0,
2015-04-13, 09:53:04,VALID,919.984,VALID,0,VALID,72.9103,VALID,301.265,VALID,24.6559,VALID,152,VALID,0,
2015-04-13, 09:54:04,VALID,919.951,VALID,0,VALID,74.5875,VALID,267.743,VALID,24.5954,VALID,147,VALID,0,
2015-04-13, 09:55:04,VALID,919.964,VALID,0,VALID,77.6674,VALID,259.578,VALID,24.5368,VALID,56,VALID,0,
2015-04-13, 09:56:04,VALID,919.976,VALID,0,VALID,76.1351,VALID,258.396,VALID,24.5564,VALID,76,VALID,0,
2015-04-13, 09:57:04,VALID,919.956,VALID,0,VALID,77.2404,VALID,272.901,VALID,24.5564,VALID,74,VALID,0,
2015-04-13, 09:58:04,VALID,919.931,VALID,0,VALID,75.9673,VALID,623.911,VALID,24.5759,VALID,71,VALID,0,
2015-04-13, 09:59:04,VALID,919.924,VALID,0,VALID,76.9203,VALID,301.48,VALID,24.7321,VALID,15,VALID,0.142969,
2015-04-13, 10:00:04,VALID,919.949,VALID,0,VALID,75.0678,VALID,343.489,VALID,24.8083,VALID,105,VALID,0.0210938,
2015-04-13, 10:01:04,VALID,919.957,VALID,0,VALID,73.0171,VALID,268.066,VALID,24.7693,VALID,62,VALID,0.410937,
2015-04-13, 10:02:04,VALID,919.926,VALID,0,VALID,74.1377,VALID,230.246,VALID,24.8278,VALID,62,VALID,0.428125,
2015-04-13, 10:03:04,VALID,919.911,VALID,0,VALID,75.8454,VALID,222.94,VALID,24.8278,VALID,45,VALID,1.65313,
2015-04-13, 10:04:04,VALID,919.927,VALID,0,VALID,76.8593,VALID,233.685,VALID,24.7888,VALID,80,VALID,0,
2015-04-13, 10:05:04,VALID,919.908,VALID,0,VALID,76.0893,VALID,251.197,VALID,24.7888,VALID,59,VALID,0,
2015-04-13, 10:06:04,VALID,919.91,VALID,0,VALID,76.5467,VALID,264.628,VALID,24.8102,VALID,59,VALID,0,
2015-04-13, 10:07:04,VALID,919.905,VALID,0,VALID,75.8073,VALID,319.852,VALID,24.7907,VALID,59,VALID,0,
2015-04-13, 10:08:04,VALID,919.936,VALID,0,VALID,78.0866,VALID,762.94,VALID,24.7126,VALID,59,VALID,1.73516,
2015-04-13, 10:09:04,VALID,919.896,VALID,0,VALID,76.5238,VALID,764.551,VALID,24.654,VALID,81,VALID,1.40547,
2015-04-13, 10:10:04,VALID,919.922,VALID,0,VALID,77.1185,VALID,359.606,VALID,24.7926,VALID,28,VALID,0.515625,
2015-04-13, 10:11:04,VALID,919.91,VALID,0,VALID,78.1019,VALID,755.956,VALID,24.9859,VALID,34,VALID,0.221484,
2015-04-13, 10:12:04,VALID,919.916,VALID,0,VALID,73.9929,VALID,269.462,VALID,25.0464,VALID,48,VALID,3.05586,
2015-04-13, 10:13:04,VALID,919.94,VALID,0,VALID,72.6588,VALID,266.776,VALID,24.9274,VALID,42,VALID,0.401563,
2015-04-13, 10:14:04,VALID,919.933,VALID,0,VALID,73.8633,VALID,263.016,VALID,24.8083,VALID,66,VALID,1.36445,
2015-04-13, 10:15:04,VALID,919.961,VALID,0,VALID,73.8099,VALID,268.495,VALID,24.6735,VALID,23,VALID,0.744141,
2015-04-13, 10:16:04,VALID,919.971,VALID,0,VALID,75.3422,VALID,283.107,VALID,24.5954,VALID,54,VALID,0.003125,
2015-04-13, 10:17:04,VALID,920.015,VALID,0,VALID,76.2418,VALID,286.546,VALID,24.6149,VALID,48,VALID,0.258203,
2015-04-13, 10:18:04,VALID,919.975,VALID,0,VALID,76.318,VALID,280.959,VALID,24.654,VALID,40,VALID,1.59453,
2015-04-13, 10:19:04,VALID,920.015,VALID,0,VALID,74.7552,VALID,270,VALID,24.5155,VALID,44,VALID,1.76484,
2015-04-13, 10:20:04,VALID,919.974,VALID,0,VALID,76.562,VALID,278.81,VALID,24.4392,VALID,32,VALID,0.562891,
2015-04-13, 10:21:04,VALID,919.996,VALID,0,VALID,77.5835,VALID,305.455,VALID,24.4374,VALID,52,VALID,1.32383,
2015-04-13, 10:22:04,VALID,919.983,VALID,0,VALID,76.5162,VALID,333.068,VALID,24.4392,VALID,59,VALID,1.24922,
2015-04-13, 10:23:04,VALID,919.992,VALID,0,VALID,78.5745,VALID,467.476,VALID,24.4374,VALID,30,VALID,1.20547,
2015-04-13, 10:24:04,VALID,919.944,VALID,0,VALID,76.6763,VALID,393.987,VALID,24.6149,VALID,22,VALID,0.992969,
2015-04-13, 10:25:04,VALID,919.931,VALID,0,VALID,76.3561,VALID,363.259,VALID,24.6716,VALID,71,VALID,0,
2015-04-13, 10:26:04,VALID,919.92,VALID,0,VALID,75.083,VALID,299.438,VALID,24.6735,VALID,79,VALID,0,
2015-04-13, 10:27:04,VALID,919.914,VALID,0,VALID,76.7373,VALID,285.793,VALID,24.7321,VALID,58,VALID,0.283203,
2015-04-13, 10:28:04,VALID,919.875,VALID,0,VALID,74.7095,VALID,308.678,VALID,24.7516,VALID,58,VALID,1.19648,
2015-04-13, 10:29:04,VALID,919.878,VALID,0,VALID,74.7323,VALID,324.472,VALID,24.7321,VALID,58,VALID,0,
2015-04-13, 10:30:04,VALID,919.846,VALID,0,VALID,77.9875,VALID,324.365,VALID,24.693,VALID,72,VALID,0.00117188,
2015-04-13, 10:31:04,VALID,919.842,VALID,0,VALID,77.0346,VALID,322.753,VALID,24.654,VALID,68,VALID,0,
2015-04-13, 10:32:04,VALID,919.86,VALID,0,VALID,76.6535,VALID,345.638,VALID,24.5935,VALID,54,VALID,0.00195313,
2015-04-13, 10:33:04,VALID,919.853,VALID,0,VALID,75.9368,VALID,341.985,VALID,24.5954,VALID,74,VALID,0,
2015-04-13, 10:34:04,VALID,919.829,VALID,0,VALID,78.2849,VALID,307.282,VALID,24.574,VALID,37,VALID,0.641797,
2015-04-13, 10:35:04,VALID,919.791,VALID,0,VALID,75.8454,VALID,301.265,VALID,24.6716,VALID,27,VALID,0,
2015-04-13, 10:36:04,VALID,919.773,VALID,0,VALID,73.97,VALID,280.851,VALID,24.7126,VALID,71,VALID,1.09297,
2015-04-13, 10:37:04,VALID,919.746,VALID,0,VALID,75.8682,VALID,249.908,VALID,24.6131,VALID,44,VALID,0.0867188,
2015-04-13, 10:38:04,VALID,919.744,VALID,0,VALID,75.7539,VALID,227.56,VALID,24.693,VALID,44,VALID,0,
2015-04-13, 10:39:04,VALID,919.712,VALID,0,VALID,75.914,VALID,219.717,VALID,24.7497,VALID,44,VALID,0,
2015-04-13, 10:40:04,VALID,919.703,VALID,0,VALID,77.5454,VALID,225.949,VALID,24.7711,VALID,51,VALID,0,
2015-04-13, 10:41:04,VALID,919.672,VALID,0,VALID,77.4615,VALID,241.42,VALID,24.8883,VALID,44,VALID,0,
2015-04-13, 10:42:04,VALID,919.693,VALID,0,VALID,76.6001,VALID,256.892,VALID,25.0036,VALID,35,VALID,0,
2015-04-13, 10:43:04,VALID,919.674,VALID,0,VALID,75.0144,VALID,279.132,VALID,24.984,VALID,35,VALID,0,
2015-04-13, 10:44:04,VALID,919.688,VALID,0,VALID,76.8059,VALID,375.185,VALID,24.9664,VALID,48,VALID,0,
2015-04-13, 10:45:04,VALID,919.694,VALID,0,VALID,75.3498,VALID,937.961,VALID,24.9255,VALID,59,VALID,0.116406,
2015-04-13, 10:46:04,VALID,919.681,VALID,0,VALID,74.9687,VALID,933.986,VALID,25.0055,VALID,55,VALID,1.09141,
2015-04-13, 10:47:04,VALID,919.665,VALID,0,VALID,76.1198,VALID,784.535,VALID,25.0231,VALID,60,VALID,1.17188,
2015-04-13, 10:48:04,VALID,919.676,VALID,0,VALID,74.8315,VALID,497.775,VALID,24.9859,VALID,61,VALID,0.674219,
2015-04-13, 10:49:04,VALID,919.661,VALID,0,VALID,76.0817,VALID,368.631,VALID,25.0055,VALID,125,VALID,0.0835937,
2015-04-13, 10:50:04,VALID,919.643,VALID,0,VALID,73.5355,VALID,344.241,VALID,24.8864,VALID,131,VALID,0,
2015-04-13, 10:51:04,VALID,919.627,VALID,0,VALID,75.0983,VALID,332.315,VALID,24.9274,VALID,131,VALID,0,
2015-04-13, 10:52:04,VALID,919.649,VALID,0,VALID,72.9103,VALID,337.043,VALID,25.0055,VALID,131,VALID,0,
2015-04-13, 10:53:04,VALID,919.655,VALID,0,VALID,72.8341,VALID,373.68,VALID,24.984,VALID,131,VALID,0,
2015-04-13, 10:54:04,VALID,919.64,VALID,0,VALID,73.6498,VALID,827.189,VALID,25.1598,VALID,131,VALID,0,
2015-04-13, 10:55:04,VALID,919.603,VALID,0,VALID,74.9077,VALID,375.292,VALID,25.4136,VALID,131,VALID,0,
2015-04-13, 10:56:04,VALID,919.626,VALID,0,VALID,72.5902,VALID,323.29,VALID,25.6089,VALID,131,VALID,0,
2015-04-13, 10:57:04,VALID,919.594,VALID,0,VALID,71.0274,VALID,292.24,VALID,25.728,VALID,131,VALID,0,
2015-04-13, 10:58:04,VALID,919.588,VALID,0,VALID,71.7897,VALID,267.958,VALID,25.8257,VALID,131,VALID,0,
2015-04-13, 10:59:04,VALID,919.59,VALID,0,VALID,70.1735,VALID,250.768,VALID,25.9995,VALID,131,VALID,0,
2015-04-13, 11:00:04,VALID,919.558,VALID,0,VALID,65.4547,VALID,249.156,VALID,26.0776,VALID,130,VALID,0,
2015-04-13, 11:01:04,VALID,919.538,VALID,0,VALID,65.8434,VALID,258.074,VALID,26.0601,VALID,130,VALID,0,
2015-04-13, 11:02:04,VALID,919.529,VALID,0,VALID,66.7506,VALID,294.926,VALID,26.019,VALID,130,VALID,0,
2015-04-13, 11:03:04,VALID,919.512,VALID,0,VALID,66.5372,VALID,653.994,VALID,26.019,VALID,130,VALID,0,
2015-04-13, 11:04:04,VALID,919.468,VALID,0,VALID,66.7583,VALID,478.65,VALID,26.1362,VALID,130,VALID,0,
2015-04-13, 11:05:04,VALID,919.44,VALID,0,VALID,67.7569,VALID,591.249,VALID,26.3706,VALID,129,VALID,0,
2015-04-13, 11:06:04,VALID,919.423,VALID,0,VALID,68.3287,VALID,347.465,VALID,26.5464,VALID,129,VALID,0,
2015-04-13, 11:07:04,VALID,919.385,VALID,0,VALID,68.9538,VALID,322.538,VALID,26.7223,VALID,51,VALID,0,
2015-04-13, 11:08:04,VALID,919.34,VALID,0,VALID,67.2385,VALID,312.224,VALID,26.605,VALID,61,VALID,0,
2015-04-13, 11:09:04,VALID,919.311,VALID,0,VALID,67.7036,VALID,316.629,VALID,26.312,VALID,64,VALID,0.580859,
2015-04-13, 11:10:04,VALID,919.297,VALID,0,VALID,68.6489,VALID,645.506,VALID,25.9995,VALID,63,VALID,0.0113281,
2015-04-13, 11:11:04,VALID,919.274,VALID,0,VALID,68.1305,VALID,925.283,VALID,25.8042,VALID,60,VALID,0,
2015-04-13, 11:12:04,VALID,919.25,VALID,0,VALID,69.3121,VALID,909.812,VALID,25.7261,VALID,54,VALID,1.54453,
2015-04-13, 11:13:04,VALID,919.211,VALID,0,VALID,69.9296,VALID,880.373,VALID,25.7456,VALID,42,VALID,0,
2015-04-13, 11:14:04,VALID,919.187,VALID,0,VALID,69.6704,VALID,878.869,VALID,25.9214,VALID,24,VALID,0.0402344,
2015-04-13, 11:15:04,VALID,919.212,VALID,0,VALID,68.5193,VALID,574.058,VALID,25.8999,VALID,78,VALID,0.428125,